sat.trackr.live / text

‹ back to catalog

STARLINK-31698

NORAD 59379 · 2024-062F

PAYLOAD ACTIVE UNKNOWN

§ Identity

Operator
Country
US
Launch date
2024-04-02
Launch site
AFWTR
Launch vehicle
Mass (kg)
RCS (m²)

Purposes: comms

External: N2YO · Heavens-Above · Gunter

§ Orbital elements

Epoch: 2026-09-20T03:44:59.183520Z

Period
93.85 min
Inclination
53.1596°
Eccentricity
0.0001282
Mean motion
15.34387670 rev/d
Perigee alt
461.9 km
Apogee alt
463.6 km
Semi-major
6,840.9 km
B*
2.7219e-5
RAAN
68.9606°
Arg perigee
84.6794°
Mean anomaly
275.4354°
Rev number
13,945

§ Raw data

STARLINK-316981 59379U 24062F   26263.15624055  .00000543  00000+0  27219-4 0  99902 59379  53.1596  68.9606 0001282  84.6794 275.4354 15.34387670139456

JSON: /api/v1/satellites/59379 · /tle

For live sub-satellite position, see the globe view (requires WebGL).

§ Visibility from observer

Set your observer location to see the next 7 days of passes ≥ 10°. The values pass through the URL so the page stays shareable.

No JS? Fill the form by hand. The geolocation button needs JavaScript.